FW4300 Weather Reports


time (UTC)temp
F
wind
direction
speed
knots
gust
knots
rain 1hr
in
rain 24hr
in
rain mn
in
humidity
%
barometer
mb
20260505113201 79 113 0.0 0.0 0.00 0.17 0.00 77 1018.0
20260505112556 79 115 0.0 0.0 0.00 0.17 0.00 78 1017.8
20260505112055 79 172 0.0 0.0 0.00 0.17 0.00 79 1017.8
20260505111559 78 139 0.0 0.0 0.00 0.17 0.00 81 1017.8
20260505111052 77 107 0.0 0.0 0.00 0.17 0.00 82 1017.7
20260505110551 76 129 0.0 0.0 0.00 0.17 0.00 82 1017.6
20260505102038 0 0.0 0.0 0.00 0.17 0.00 1017.3
20260505101543 0 0.0 0.0 0.00 0.17 0.00 1017.2
20260505101035 0 0.0 0.0 0.00 0.17 0.00 1017.2
20260505100535 0 0.0 0.0 0.00 0.17 0.00 1017.2
20260505100033 0 0.0 0.0 0.00 0.17 0.00 1017.1
20260505095531 0 0.0 0.0 0.00 0.17 0.00 1017.2
20260505095030 0 0.0 0.0 0.00 0.17 0.00 1017.1
20260505094529 0 0.0 0.0 0.00 0.17 0.00 1017.0
20260505094025 0 0.0 0.0 0.00 0.17 0.00 1017.0
20260505093523 0 0.0 0.0 0.00 0.17 0.00 1017.0
20260505093021 0 0.0 0.0 0.00 0.17 0.00 1017.0
20260505092520 0 0.0 0.0 0.00 0.17 0.00 1017.0
20260505092019 0 0.0 0.0 0.00 0.17 0.00 1017.0
20260505091527 0 0.0 0.0 0.00 0.17 0.00 1017.0
20260505091014 0 0.0 0.0 0.00 0.17 0.00 1017.0
20260505090512 0 0.0 0.0 0.00 0.17 0.00 1016.9
20260505090012 0 0.0 0.0 0.00 0.17 0.00 1016.8
20260505085510 0 0.0 0.0 0.00 0.17 0.00 1016.7
20260505085009 0 0.0 0.0 0.00 0.17 0.00 1016.7
20260505084512 0 0.0 0.0 0.00 0.17 0.00 1016.7
20260505084007 0 0.0 0.0 0.00 0.17 0.00 1016.7
20260505083502 0 212 0.0 0.0 0.00 0.17 0.00 1016.5
20260505083004 0 212 0.0 0.0 0.00 0.17 0.00 1016.5
20260505082600 0 212 0.0 0.0 0.00 0.17 0.00 81 1016.5
20260505082100 74 212 0.0 0.0 0.00 0.17 0.00 81 1016.5
20260505081602 74 212 0.0 0.0 0.00 0.17 0.00 81 1016.5
20260505081059 74 212 0.0 0.0 0.00 0.17 0.00 81 1016.5
20260505080557 74 212 0.0 0.0 0.00 0.17 0.00 81 1016.4
20260505080057 74 212 0.0 0.0 0.00 0.17 0.00 81 1016.3
20260505075556 74 212 0.0 0.0 0.00 0.17 0.00 81 1016.4
20260505075055 74 212 0.0 0.0 0.00 0.17 0.00 81 1016.3
20260505074555 75 212 0.0 0.0 0.00 0.17 0.00 81 1016.3
20260505074054 75 212 0.0 0.0 0.00 0.17 0.00 81 1016.3
20260505073553 75 212 0.0 0.0 0.00 0.17 0.00 80 1016.3
20260505073058 75 212 0.0 0.0 0.00 0.17 0.00 80 1016.4
20260505072552 75 212 0.0 0.0 0.00 0.17 0.00 80 1016.4
20260505072052 75 212 0.0 0.0 0.00 0.17 0.00 80 1016.4
20260505071551 75 212 0.0 0.0 0.00 0.17 0.00 79 1016.4
20260505071050 75 178 0.0 0.0 0.00 0.17 0.00 79 1016.3
20260505070551 75 162 0.0 0.0 0.00 0.17 0.00 78 1016.3
20260505070149 75 162 0.0 0.0 0.00 0.17 0.00 78 1016.3
20260505065548 75 162 0.0 0.0 0.00 0.17 0.00 78 1016.3
20260505065047 75 168 0.0 0.0 0.00 0.17 0.00 78 1016.3
20260505064545 75 168 0.0 0.0 0.00 0.17 0.00 78 1016.4
20260505064047 75 131 0.0 0.0 0.00 0.17 0.00 77 1016.4
20260505063544 76 136 0.0 0.0 0.00 0.17 0.00 77 1016.5
20260505063043 76 117 0.0 0.0 0.00 0.17 0.00 77 1016.5
20260505062543 76 162 0.0 0.0 0.00 0.17 0.00 77 1016.5
20260505062043 76 162 0.0 0.0 0.00 0.17 0.00 76 1016.6
20260505061542 76 161 0.0 0.0 0.00 0.17 0.00 76 1016.5
20260505061041 76 161 0.0 0.0 0.00 0.17 0.00 76 1016.7
20260505060539 76 169 0.0 0.0 0.00 0.17 0.00 75 1016.7
20260505060039 76 169 0.0 0.0 0.00 0.17 0.00 75 1016.8
20260505055539 76 164 0.0 0.0 0.00 0.17 0.00 75 1016.9
20260505055040 76 162 0.0 0.0 0.00 0.17 0.00 75 1017.0
20260505054537 76 167 0.0 0.0 0.00 0.17 0.00 75 1017.0
20260505054036 76 129 0.0 0.0 0.00 0.17 0.00 75 1017.0
20260505053541 76 143 0.0 0.0 0.00 0.17 0.00 75 1017.1
20260505053035 76 149 0.0 0.0 0.00 0.17 0.00 75 1017.2
20260505052535 76 172 0.0 0.0 0.00 0.17 0.00 75 1017.3
20260505052034 76 143 0.0 0.0 0.00 0.17 0.00 75 1017.3
20260505051537 76 153 0.0 0.0 0.00 0.17 0.00 75 1017.3
20260505051034 76 168 0.0 0.0 0.00 0.17 0.00 75 1017.4
20260505050535 76 136 0.0 0.0 0.00 0.17 0.00 75 1017.5
20260505050104 76 170 0.0 0.0 0.00 0.17 0.00 75 1017.5
20260505041542 77 120 0.0 0.0 0.00 0.17 0.00 75 1017.8
20260505041024 77 150 0.0 0.0 0.00 0.17 0.00 75 1018.0
20260505040525 77 155 0.0 0.0 0.00 0.17 0.00 75 1018.0
20260505040021 77 159 0.0 0.0 0.00 0.17 0.00 75 1018.0
20260505035520 77 136 0.0 0.0 0.00 0.17 0.00 75 1018.1
20260505035020 77 176 0.0 0.0 0.00 0.17 0.00 75 1018.0
20260505034520 77 172 0.0 0.0 0.00 0.17 0.00 75 1018.1
20260505034022 77 137 0.0 0.0 0.00 0.17 0.00 75 1018.1
20260505033520 77 179 0.0 0.0 0.00 0.17 0.00 75 1018.2
20260505033020 77 203 0.0 0.0 0.00 0.17 0.00 75 1018.2
20260505032523 77 202 0.0 0.0 0.00 0.17 0.00 75 1018.3
20260505032020 77 203 0.0 0.0 0.00 0.17 0.00 75 1018.1
20260505031519 77 203 0.0 0.0 0.00 0.17 0.00 75 1018.1
20260505031019 77 174 0.0 0.0 0.00 0.17 0.00 74 1018.1
20260505030518 76 175 0.0 0.0 0.00 0.17 0.00 74 1018.2
20260505030020 76 190 0.0 0.0 0.00 0.17 0.00 74 1018.2
20260505025518 77 198 0.0 0.0 0.00 0.17 0.00 74 1018.1
20260505025018 77 198 0.0 0.0 0.00 0.17 0.00 74 1018.1
20260505024521 77 170 0.0 0.0 0.00 0.17 0.00 74 1018.1
20260505024017 77 129 0.0 0.0 0.00 0.17 0.00 73 1018.1
20260505023517 77 127 0.0 0.0 0.00 0.17 0.00 73 1018.1
20260505023017 77 121 0.0 0.0 0.00 0.17 0.00 73 1018.1
20260505022517 77 134 0.0 0.0 0.00 0.17 0.00 73 1018.1
20260505022017 77 136 0.0 0.0 0.00 0.17 0.00 72 1018.2
20260505021518 77 148 0.0 0.0 0.00 0.17 0.00 72 1018.2
20260505021016 77 143 0.0 0.0 0.00 0.17 0.00 72 1018.1
20260505020515 77 147 0.0 0.0 0.00 0.17 0.00 72 1018.2
20260505020018 77 167 0.0 0.0 0.00 0.17 0.00 72 1018.1
20260505015517 77 171 0.0 0.0 0.00 0.17 0.00 71 1018.1
20260505015017 77 149 0.0 0.0 0.00 0.17 0.00 71 1018.1
20260505014516 77 149 0.0 0.0 0.00 0.17 0.00 70 1018.0
20260505014015 77 171 0.0 0.0 0.00 0.17 0.00 70 1017.8
20260505013514 77 169 0.0 0.0 0.00 0.17 0.00 70 1017.9
20260505013019 77 135 0.0 0.0 0.00 0.17 0.00 70 1017.8
20260505012515 77 131 0.0 0.0 0.00 0.17 0.00 70 1017.6
20260505012014 77 130 0.0 0.0 0.00 0.17 0.00 69 1017.6
20260505011521 77 162 0.0 0.0 0.00 0.17 0.00 69 1017.5
20260505011016 77 142 0.0 0.0 0.00 0.17 0.00 69 1017.4
20260505010512 77 156 0.0 0.0 0.00 0.17 0.00 69 1017.4
20260505010013 77 172 0.0 0.0 0.00 0.17 0.00 69 1017.3
20260505005513 77 154 0.0 0.0 0.00 0.17 0.00 69 1017.3
20260505005014 77 176 0.0 0.0 0.00 0.17 0.00 69 1017.3
20260505004529 77 162 0.0 0.0 0.00 0.17 0.00 69 1017.3
20260505004012 78 183 0.0 0.0 0.00 0.17 0.00 69 1017.4
20260505003512 78 106 0.0 0.0 0.00 0.17 0.00 68 1017.4
20260505003012 78 136 0.0 0.0 0.00 0.17 0.00 69 1017.3
20260505002513 77 119 0.0 0.0 0.00 0.17 0.00 69 1017.4
20260505002012 77 137 0.0 0.0 0.00 0.17 0.00 69 1017.3
20260505001512 77 141 0.0 0.0 0.00 0.17 0.00 70 1017.3
20260505001011 77 122 0.0 0.0 0.00 0.17 0.00 69 1017.3
20260505000511 77 122 0.0 0.0 0.00 0.17 0.00 69 1017.4
20260505000015 77 166 0.0 0.0 0.00 0.17 0.00 69 1017.2
20260504235511 77 247 0.0 0.0 0.00 0.17 0.00 68 1017.0
20260504235011 78 213 0.0 0.0 0.00 0.17 0.00 68 1017.0
20260504234509 78 148 0.0 0.0 0.00 0.17 0.00 67 1016.9
20260504234009 78 143 0.0 0.0 0.00 0.17 0.00 67 1016.8
20260504233511 79 143 0.0 0.0 0.00 0.17 0.00 67 1016.9
20260504233009 79 143 0.0 0.0 0.00 0.17 0.00 66 1016.8
20260504232509 79 143 0.0 0.0 0.00 0.17 0.00 66 1016.8
20260504232008 79 145 0.0 0.0 0.00 0.17 0.00 66 1016.8
20260504231509 79 139 0.0 0.0 0.00 0.17 0.00 66 1016.8
20260504231009 79 127 0.0 0.0 0.00 0.17 0.00 66 1016.7
20260504230508 79 126 0.0 0.0 0.00 0.17 0.00 66 1016.7
20260504230015 79 127 0.0 0.0 0.00 0.17 0.00 66 1016.7
20260504225510 79 127 0.0 0.0 0.00 0.17 0.00 66 1016.5
20260504225008 79 105 0.0 0.0 0.00 0.17 0.00 66 1016.6
20260504224508 79 115 0.0 0.0 0.00 0.17 0.00 66 1016.6
20260504224007 79 106 0.0 0.0 0.00 0.17 0.00 66 1016.4
20260504223510 79 130 0.0 0.0 0.00 0.17 0.00 65 1016.4
20260504223008 79 105 0.0 0.0 0.00 0.17 0.00 65 1016.3
20260504222511 79 83 0.0 0.0 0.00 0.17 0.00 65 1016.2
20260504222013 80 101 0.0 0.0 0.00 0.17 0.00 65 1016.2
20260504221507 80 116 0.0 0.0 0.00 0.17 0.00 65 1016.1
20260504221007 80 106 0.0 0.0 0.00 0.17 0.00 64 1016.2
20260504220507 80 138 0.0 0.0 0.00 0.17 0.00 65 1016.1
20260504220007 80 129 0.0 0.0 0.00 0.17 0.00 64 1016.1
20260504215506 81 133 0.0 0.0 0.00 0.17 0.00 64 1016.0
20260504215009 81 126 0.0 0.0 0.00 0.17 0.00 64 1015.9
20260504214511 81 83 0.0 0.0 0.00 0.17 0.00 64 1015.9
20260504214008 81 129 0.0 0.0 0.00 0.17 0.00 64 1015.8
20260504213506 81 151 0.0 0.0 0.00 0.17 0.00 64 1015.8
20260504213020 81 115 0.0 0.0 0.00 0.17 0.00 65 1015.7
20260504212506 81 121 0.0 0.0 0.00 0.17 0.00 64 1015.6
20260504212005 81 118 0.0 0.0 0.00 0.17 0.00 65 1015.6
20260504211511 81 98 0.0 0.0 0.00 0.17 0.00 65 1015.5
20260504211004 81 126 0.0 0.0 0.00 0.17 0.00 66 1015.5
20260504204537 80 155 0.0 0.0 0.10 0.17 0.17 67 1015.6
20260504204040 80 75 0.0 0.0 0.13 0.17 0.17 66 1015.6
20260504203537 80 98 0.0 0.0 0.17 0.17 0.17 67 1015.7
20260504203037 79 111 0.0 0.0 0.17 0.17 0.17 66 1015.7
20260504202536 79 86 0.0 0.0 0.17 0.17 0.17 68 1015.8
20260504202035 79 115 0.0 0.0 0.17 0.17 0.17 69 1015.9
20260504201536 78 91 0.0 0.0 0.17 0.17 0.17 70 1015.9
20260504201034 78 130 0.0 0.0 0.17 0.17 0.17 71 1016.0
20260504200534 78 177 0.0 0.0 0.17 0.17 0.17 70 1016.0
20260504200033 79 96 0.0 0.0 0.17 0.17 0.17 69 1016.0
20260504195532 79 132 0.0 0.0 0.16 0.16 0.16 68 1016.0
20260504195034 80 165 0.0 0.0 0.13 0.13 0.13 66 1016.1
20260504194531 82 111 0.0 0.0 0.06 0.06 0.06 64 1016.1
20260504194030 83 133 0.0 0.0 0.03 0.03 0.03 62 1016.0
20260504193528 85 167 0.0 0.0 0.00 0.00 0.00 59 1015.8
20260504193027 85 180 0.0 0.0 0.00 0.00 0.00 60 1015.9
20260504192526 84 158 0.0 0.0 0.00 0.00 0.00 60 1015.8
20260504192028 84 108 0.0 0.0 0.00 0.00 0.00 60 1015.8
20260504191526 84 226 0.0 0.0 0.00 0.00 0.00 60 1015.9
20260504191025 84 212 0.0 0.0 0.00 0.00 0.00 60 1015.9
20260504190525 84 205 0.0 0.0 0.00 0.00 0.00 60 1016.0
20260504190026 84 221 0.0 0.0 0.00 0.00 0.00 59 1016.0
20260504185526 85 115 0.0 0.0 0.00 0.00 0.00 58 1016.0
20260504185023 85 80 0.0 0.0 0.00 0.00 0.00 58 1016.0
20260504184522 85 205 0.0 0.0 0.00 0.00 0.00 58 1016.1
20260504184022 85 188 0.0 0.0 0.00 0.00 0.00 57 1016.1
20260504183522 86 171 0.0 0.0 0.00 0.00 0.00 59 1016.1
20260504183023 86 134 0.0 0.0 0.00 0.00 0.00 58 1016.1
20260504182523 86 201 0.0 0.0 0.00 0.00 0.00 59 1016.1
20260504182025 86 143 0.0 0.0 0.00 0.00 0.00 58 1016.1
20260504181519 86 120 0.0 0.0 0.00 0.00 0.00 57 1016.2
20260504181018 86 182 0.0 0.0 0.00 0.00 0.00 59 1016.2
20260504180516 85 200 0.0 0.0 0.00 0.00 0.00 59 1016.4
20260504180015 86 137 0.0 0.0 0.00 0.00 0.00 57 1016.4
20260504175515 86 141 0.0 0.0 0.00 0.00 0.00 58 1016.7
20260504175018 85 237 0.0 0.0 0.00 0.00 0.00 58 1016.8
20260504174515 85 186 0.0 0.0 0.00 0.00 0.00 58 1016.8
20260504174017 85 179 0.0 0.0 0.00 0.00 0.00 59 1016.9
20260504173514 86 175 0.0 0.0 0.00 0.00 0.00 58 1016.9
20260504173025 86 174 0.0 0.0 0.00 0.00 0.00 56 1016.9
20260504172513 87 85 0.0 0.0 0.00 0.00 0.00 55 1016.8
20260504172013 86 171 0.0 0.0 0.00 0.00 0.00 56 1016.8
20260504171518 86 118 0.0 0.0 0.00 0.00 0.00 56 1016.9
20260504171013 87 158 0.0 0.0 0.00 0.00 0.00 56 1016.9
20260504170513 87 163 0.0 0.0 0.00 0.00 0.00 56 1016.9
20260504151006 85 123 0.0 0.0 0.00 0.00 0.00 58 1017.8
20260504150504 85 119 0.0 0.0 0.00 0.00 0.00 58 1017.8
20260504141058 84 183 0.0 0.0 0.00 0.00 0.00 58 1017.8
20260504140600 83 155 0.0 0.0 0.00 0.00 0.00 58 1017.8
20260504140110 84 124 0.0 0.0 0.00 0.00 0.00 58 1017.9
20260504130555 82 134 0.0 0.0 0.00 0.00 0.00 61 1017.9